Zurück zum Katalog

PEGASUS DEB

AktivPO
NORAD 39307·DEBRIS·🇺🇸 United States

Gestartet May 19, 1994 von Vandenberg Space Force Base

Loading…

Nächste Überflüge (nächste 24 Stunden)

TLE

AktuellSource: Space-Track

Epoche: Sep 14, 2026, 01:22 UTC

1 39307U 94029AES 26257.05694645  .00098839  00000-0  15137-2 0  9993
2 39307  81.9252 125.6510 0039908 141.3148 219.0975 15.53051276797351

Verfolge PEGASUS DEB in Echtzeit mit AllMySat

Download on the App Store